TimeEDT,TemperatureF,Dew PointF,Humidity,Sea Level PressureIn,VisibilityMPH,Wind Direction,Wind SpeedMPH,Gust SpeedMPH,PrecipitationIn,Events,Conditions,WindDirDegrees,DateUTC
12:53 AM,75.0,66.9,76,30.16,10.0,East,6.9,-,N/A,,Partly Cloudy,100,2013-05-28 04:53:00
1:53 AM,73.9,66.9,79,30.14,10.0,Variable,5.8,16.1,N/A,,Partly Cloudy,0,2013-05-28 05:53:00
2:53 AM,73.9,66.9,79,30.12,10.0,Variable,4.6,-,N/A,,Partly Cloudy,0,2013-05-28 06:53:00
3:53 AM,72.0,66.9,84,30.10,10.0,ENE,4.6,-,N/A,,Partly Cloudy,70,2013-05-28 07:53:00
4:53 AM,72.0,66.9,84,30.09,10.0,Variable,5.8,-,N/A,,Partly Cloudy,0,2013-05-28 08:53:00
5:53 AM,71.1,66.9,87,30.10,10.0,Variable,4.6,-,N/A,,Clear,0,2013-05-28 09:53:00
6:53 AM,71.1,66.0,84,30.12,10.0,Variable,3.5,-,N/A,,Partly Cloudy,0,2013-05-28 10:53:00
7:53 AM,73.0,66.9,81,30.13,10.0,ENE,5.8,-,N/A,,Scattered Clouds,60,2013-05-28 11:53:00
8:53 AM,77.0,68.0,74,30.13,10.0,East,8.1,16.1,N/A,,Partly Cloudy,90,2013-05-28 12:53:00
9:53 AM,80.1,68.0,67,30.12,10.0,East,10.4,20.7,N/A,,Scattered Clouds,100,2013-05-28 13:53:00
10:53 AM,84.0,69.1,61,30.13,10.0,Variable,4.6,18.4,N/A,,Scattered Clouds,0,2013-05-28 14:53:00
11:53 AM,84.9,68.0,57,30.12,10.0,East,11.5,20.7,N/A,,Mostly Cloudy,100,2013-05-28 15:53:00
12:53 PM,88.0,68.0,51,30.11,10.0,East,10.4,18.4,N/A,,Mostly Cloudy,100,2013-05-28 16:53:00
1:53 PM,88.0,66.9,49,30.08,10.0,East,8.1,-,N/A,,Mostly Cloudy,90,2013-05-28 17:53:00
2:53 PM,89.1,66.9,48,30.07,10.0,East,10.4,-,N/A,,Mostly Cloudy,100,2013-05-28 18:53:00
3:53 PM,89.1,64.0,43,30.05,10.0,ENE,10.4,23.0,0.00,,Mostly Cloudy,70,2013-05-28 19:53:00
4:53 PM,89.1,66.9,48,30.05,10.0,East,11.5,21.9,N/A,,Scattered Clouds,100,2013-05-28 20:53:00
5:24 PM,84.2,68.0,58,30.06,10.0,ESE,17.3,32.2,N/A,Thunderstorm,Thunderstorm,120,2013-05-28 21:24:00
5:49 PM,78.8,71.6,78,30.06,9.0,SE,11.5,19.6,0.00,Rain,Light Rain,130,2013-05-28 21:49:00
5:53 PM,79.0,72.0,79,30.06,9.0,ESE,9.2,16.1,0.00,Rain,Light Rain,120,2013-05-28 21:53:00
6:53 PM,81.0,70.0,69,30.05,10.0,East,8.1,18.4,0.00,,Mostly Cloudy,100,2013-05-28 22:53:00
7:53 PM,81.0,69.1,67,30.07,10.0,East,9.2,-,N/A,,Mostly Cloudy,100,2013-05-28 23:53:00
8:53 PM,79.0,66.9,66,30.08,10.0,ESE,9.2,21.9,N/A,,Scattered Clouds,110,2013-05-29 00:53:00
9:53 PM,78.1,68.0,71,30.10,10.0,East,5.8,-,N/A,,Partly Cloudy,80,2013-05-29 01:53:00
10:53 PM,77.0,69.1,76,30.11,10.0,East,8.1,18.4,N/A,,Partly Cloudy,100,2013-05-29 02:53:00
11:53 PM,77.0,70.0,79,30.11,10.0,East,9.2,-,N/A,,Partly Cloudy,90,2013-05-29 03:53:00